THOR AGENA B DEB, 2153

Orbit data source: Space-Track

THOR AGENA B DEB, 2153 is space debris in LEO originally from a launch on Mon, 29 Nov 1965 UTC launched from the Air Force Western Test Range (AFWTR). Debris objects in space refer to the collection of defunct objects orbiting the Earth. Examples of debris include non-operational satellites, rocket bodies, and fragments generated from explosions, collisions, or faulty payload assembly.

Loading next visibility...
Identifier
2153, 1965-098J
Orbit
LEO
Country
Flag of USUS
Related business
Manufacturer
Unknown
Mission
Spacecraft
Bus & Motor
Unknown
Mass
~1 kg wet, ~1 kg dry
Launch date (UTC)
1965-11-29 (60 years ago)
Launch vehicle
Unknown
Launch site
Air Force Western Test Range (AFWTR)
Object type
Payload
Rocket body
Debris
Shape & HBR
Ann Cyl, 0.1 m
Radar Cross Section
0.031 m², Small (<0.1 m²)

Expand to show TLE details & history
Last TLE update: 19 hours ago

TLE from 19 hours ago
0 THOR AGENA B DEB
1 02153U 65098J   25260.17064897  .00001071  00000-0  34437-3 0  9999
2 02153  79.7450 310.9181 1282056 249.9525 125.5897 12.38631442653227
Epoch: 2025-09-17T04:05Z
TLE epoch observation values (Epoch: 2025-09-17T04:05:44.071Z)
Latitude
25.97268°
Longitude
-101.83225°
Altitude
2,180.69 km
Speed
6.533 km/s
True Right ascension
21h 03m 48s
True Declination
25° 51' 36"
Sunlit
Object was in full shadow at epoch
Visualization orbit readout
Latitude
Unknown
Longitude
Unknown
Altitude
Unknown
Speed
Unknown
Apparent Right ascension
Unknown
Apparent Declination
Unknown
Sunlit
N/A
Visualization observer readout
Local Sidereal Time
16:07:18
Azimuth
Unknown
Elevation
Unknown
Doppler factor
Unknown
Orbital elements
Apogee altitude
2,521.108 km
Perigee altitude
498.545 km
Semi-major axis
7,887.963 km
Eccentricity
0.12821
Inclination
79.745°
RAAN
310.9181°
Arg. of periapsis
249.9525°
True anomaly
136.45002°
Mean anomaly
125.5897°
Eccentric anomaly
131.12315°
Mean motion
3.0981 °/min
Orbital period
116.2 mins
BSTAR
0.00034437
Loading maneuver chart data...
Computing Atmospheric mass density...
Loading historical data...
Loading historical data...
Loading historical data...
Loading historical data...
Loading historical data...
Loading historical data...
Loading historical data...

Documentation

Showing up to 5 results
|